Lid_Strength_Index
2 2 2 2 2 3 3 3 3 3 2 2 2 2 2 3 3 3 3 3 1 2 2 3 2 3 5 9 9 7 -1 -1 1 3 8 10 11 12 13 13 13 15 13 13 12 12 14
2 2 2 2 3 3 3 3 2 2 2 2 2 2 2 2 3 3 3 3 3 2 2 2 3 3 7 13 8 2 0 1 2 6 8 9 10 9 11 12 13 13 12 12 13 13 14
2 2 2 3 3 3 3 3 2 2 3 3 2 2 2 2 3 3 3 3 4 2 2 2 2 4 6 9 5 2 2 4 3 6 8 8 8 8 8 11 11 12 14 13 13 13 13
2 3 3 3 3 3 3 3 3 3 3 3 2 2 2 2 2 3 3 3 3 3 2 2 2 4 9 4 4 4 4 6 5 6 6 7 8 9 10 9 10 12 13 15 13 12 12
2 3 3 3 3 3 3 3 3 3 3 3 3 3 2 2 3 2 3 3 3 3 3 2 4 6 10 3 3 3 5 7 6 7 7 5 8 9 9 11 13 13 15 14 12 10 11
3 3 3 3 3 4 3 3 3 3 3 3 3 3 3 2 3 3 3 2 4 3 4 4 3 7 7 7 3 4 5 6 7 8 9 9 10 11 13 13 17 14 14 13 12 10 11
3 3 3 3 3 4 4 4 3 3 3 3 3 4 3 3 3 3 4 7 6 7 6 10 8 7 6 3 3 5 5 5 6 8 11 10 12 14 12 11 10 11 12 13 12 10 12
4 4 4 4 4 4 4 4 3 3 3 3 3 4 3 3 2 3 4 7 7 7 10 7 7 6 4 3 6 5 4 8 9 11 11 13 14 11 10 10 11 12 13 14 11 10 12
4 4 4 4 4 4 4 4 3 3 3 3 4 3 3 3 2 4 6 7 5 5 11 8 7 7 6 4 6 6 6 8 10 12 13 14 12 9 10 11 12 13 14 13 13 11 12
4 4 4 4 5 5 5 4 4 3 4 4 4 4 3 3 6 6 7 4 4 5 13 11 8 7 6 5 7 4 6 7 10 11 12 12 10 10 12 12 12 15 11 11 11 13 16
4 4 4 5 5 5 5 4 4 4 4 4 4 4 3 3 5 6 5 5 5 7 20 8 8 5 6 8 7 7 7 9 10 10 11 12 11 12 12 11 10 12 10 11 11 14 16
4 4 4 4 4 4 4 4 4 4 4 4 4 4 3 4 4 5 5 5 6 13 19 11 8 9 9 9 8 8 8 7 7 10 10 10 9 9 10 9 9 9 11 13 14 15 18
4 4 4 4 4 4 3 4 4 4 4 4 4 3 4 3 6 6 5 7 13 18 9 11 11 9 10 10 10 10 11 11 12 14 14 11 11 9 8 11 10 12 14 18 19 19 19
5 5 4 4 3 3 3 3 4 3 3 3 4 3 3 3 3 5 6 10 17 12 11 9 9 9 11 10 11 10 11 13 12 12 14 14 15 10 8 10 12 13 14 17 20 19 18
5 5 4 4 3 3 3 3 2 3 3 2 3 4 6 6 3 5 8 14 14 12 10 11 9 11 12 10 10 11 12 12 11 11 14 15 14 9 8 7 9 13 15 13 16 16 18
6 6 5 5 4 3 3 2 2 3 2 2 4 5 6 3 4 6 9 12 11 8 8 9 13 10 13 11 12 12 12 10 10 10 10 11 15 10 9 9 9 11 11 15 16 21 22
6 6 5 5 4 3 2 1 2 2 2 2 4 8 6 4 4 7 13 12 9 7 7 10 12 12 11 12 12 13 11 10 9 10 10 11 13 13 11 12 13 12 14 14 15 17 20
6 6 5 5 4 3 2 2 1 1 2 3 5 10 4 4 9 9 12 10 7 8 7 8 9 10 11 11 12 13 12 10 7 8 12 11 13 16 14 11 10 12 14 14 17 18 18
6 5 4 3 2 2 1 1 1 1 1 3 7 8 4 3 12 12 9 9 8 9 9 9 10 9 9 11 13 12 11 9 7 9 11 11 14 18 17 14 12 13 12 13 13 15 18
6 5 4 2 1 1 0 0 0 0 0 3 6 10 7 6 7 10 11 11 11 8 9 8 9 9 10 11 11 12 11 9 8 8 7 8 13 16 18 17 13 15 13 12 14 17 17
5 4 3 2 1 0 -0 -0 -0 -0 0 3 6 9 7 11 10 9 9 10 11 11 8 8 10 9 11 13 12 12 11 10 9 8 10 11 15 15 14 12 12 13 13 13 14 14 16
3 2 2 1 1 0 0 0 -0 0 0 3 7 8 7 9 8 10 10 10 10 10 10 10 11 10 10 12 12 13 12 12 12 10 11 11 15 15 16 12 13 14 13 13 13 13 13
2 2 1 0 0 0 0 -0 -0 0 1 4 4 3 6 8 9 11 11 10 10 9 8 8 9 10 11 10 10 10 10 10 10 11 12 13 13 15 17 14 14 17 14 13 13 12 12
2 1 1 1 0 0 0 -0 -0 -0 1 3 4 4 8 11 10 10 9 9 9 9 10 9 8 10 8 8 9 10 10 10 9 11 10 13 14 16 18 16 20 15 11 10 12 10 10
1 1 1 1 1 1 0 -0 -0 -0 0 4 4 4 7 11 9 9 9 9 9 8 9 9 9 8 8 10 13 14 13 13 12 11 11 12 15 16 20 19 16 13 11 12 13 13 10
1 1 1 1 1 1 0 0 0 0 0 5 4 2 4 9 10 7 9 8 10 10 10 9 8 8 9 11 13 16 17 14 15 13 10 11 13 17 15 18 21 14 10 8 9 15 9
2 1 1 1 1 1 0 0 0 0 1 3 4 2 4 8 7 6 9 10 8 10 11 10 9 10 10 13 16 16 15 12 16 16 14 14 15 16 16 17 15 11 8 7 16 15 9
2 1 1 1 1 1 1 0 0 0 1 2 5 3 4 6 6 5 5 7 7 9 11 10 11 10 12 15 15 15 15 15 15 12 13 14 15 16 15 17 18 8 9 13 11 9 8
2 2 1 1 2 1 1 1 1 1 1 2 6 3 3 5 7 6 4 4 5 5 8 10 11 10 10 14 14 14 16 16 15 18 10 15 13 15 13 14 11 8 9 8 8 8 7